Location: Dackenheim
(49.5215°N, 8.1854°E)
Time: 03:54:14
(UTC+00:00)

JY1SAT - Pass Details

Date: 23 March 2026
Orbit: 466 x 476 km, 97.4° (Epoch: 17 April)

Event Time Altitude Azimuth Distance (km) Brightness Sun altitude
Exits shadow 21:14:21 18° 309° (NW) 1,233 ? -31.0°
Drops below altitude 10° 21:15:40 10° 325° (NW) 1,664 ? -31.2°
Sets 21:17:57 0° 338° (NNW) 2,547 ? -31.4°
